Location: St. Louis
(38.6270°N, 90.1994°W)
Time: 10:30:12
(UTC-06:00)

Altair - Pass Details

Date: 08 December 2021
Orbit: 1501 x 1683 km, 47.2° (Epoch: 25 January)

Event Time Altitude Azimuth Distance (km) Brightness Sun altitude
Rises 11:26:27 0° 181° (S) 4,867 11.4 28.3°
Reaches altitude 10° 11:30:57 10° 164° (SSE) 3,855 11.2 28.4°
Maximum altitude 11:36:59 18° 125° (SE) 3,200 9.9 28.5°
Drops below altitude 10° 11:42:53 10° 86° (E) 3,774 9.6 28.5°
Sets 11:47:09 0° 69° (ENE) 4,729 9.9 28.6°
